SOYUZ-MS 06

Last updated on Thu Mar 01 2018 00:15:08 GMT+0000 (Coordinated Universal Time)

1 42937U 17054A 18058.64801626 .00002063 00000-0 38351-4 0 9992 2 42937 51.6402 204.7914 0003113 133.9046 319.3314 15.54160216101485
UTC large
Height (km)
Speed (km/s)
/
Latitude / Longitude
Inclination (degrees)
Orbital Period (minutes)
Azimuth
Elevation
Range (km)
Doppler Factor

Next 0 passes for location: London (51.5072 / 0.1276)

Sorry there are no passes over London.